EHI
0 0 0 0 0 0 0 0 0 1 4 7 10 11 12 16 19 21 26 37 47 55 62 66 64 61 57 56 56 57 57 55 53 46 39 37 35 30 23 18 16 13 8 3
0 0 0 0 0 0 0 1 1 1 4 6 9 13 16 18 21 23 28 37 45 53 62 68 68 65 62 60 60 62 63 61 56 50 42 37 33 27 20 16 15 12 7 4
0 0 0 0 1 1 1 3 3 4 5 5 8 14 19 21 23 26 30 38 45 51 60 67 71 69 65 63 64 66 67 63 57 51 44 37 31 26 20 15 13 10 7 4
0 0 0 1 2 2 3 4 6 7 7 5 7 12 17 21 26 31 36 42 48 52 57 63 68 69 67 65 65 66 65 60 54 48 43 38 34 28 21 16 13 10 7 5
0 0 0 1 2 3 4 5 7 7 7 6 6 8 13 21 30 38 44 47 51 54 56 61 65 68 70 68 66 65 61 56 51 45 40 38 35 29 21 16 14 11 8 6
0 0 1 2 3 3 4 5 6 6 6 8 8 9 15 26 36 45 50 52 53 54 58 63 66 69 72 72 69 63 58 54 50 44 38 35 33 28 20 15 14 12 9 8
0 1 2 4 4 4 6 7 7 6 9 12 14 17 23 33 43 51 54 54 52 55 61 66 67 69 72 72 68 61 56 53 50 43 35 31 30 27 20 15 13 11 10 9
1 1 2 3 5 6 9 11 11 11 14 17 20 23 28 35 44 53 57 55 51 53 60 65 65 67 69 69 65 58 54 53 50 42 34 29 28 25 19 16 13 11 10 9
2 2 3 5 7 9 13 16 16 16 18 20 22 25 29 33 41 51 56 55 49 47 52 58 59 61 63 64 61 55 50 49 46 40 33 29 26 23 18 14 12 11 10 9
3 3 6 10 13 13 15 19 20 19 18 19 21 25 27 31 37 46 51 49 43 41 44 48 51 53 56 58 56 50 46 45 42 38 33 29 26 22 16 12 10 10 10 10
5 5 8 12 15 15 16 19 22 21 20 19 19 22 25 28 34 40 43 41 37 37 39 42 45 47 49 49 47 44 41 41 39 35 31 27 23 18 12 8 7 7 8 9
6 7 8 11 14 15 15 20 24 24 22 21 19 21 23 25 29 32 34 35 35 36 36 38 41 44 43 41 39 36 34 34 33 29 25 22 17 12 8 5 3 3 4 5
7 8 8 9 11 13 16 22 25 24 23 22 22 21 21 21 22 24 27 32 36 36 35 36 38 38 37 36 34 31 28 27 26 23 19 16 12 8 6 4 2 1 1 1
8 8 7 7 8 10 14 20 21 19 19 21 21 19 18 17 17 20 25 30 35 37 37 36 33 30 29 29 29 27 24 22 21 19 17 13 9 7 8 7 5 2 1 0
6 6 7 7 6 7 10 13 14 13 14 16 16 15 15 16 17 20 24 28 32 35 35 32 27 24 24 25 25 25 22 18 17 17 15 12 9 7 8 8 7 5 3 2
5 5 6 6 6 6 6 7 10 11 11 12 11 11 13 15 18 20 23 26 28 29 28 25 23 22 22 23 24 23 19 14 13 14 14 12 10 8 8 8 8 7 6 5
5 6 6 6 6 5 5 6 8 10 10 10 10 10 11 14 17 19 21 23 22 20 19 19 20 20 19 19 20 18 14 11 10 11 12 12 11 9 8 8 8 8 7 6
5 6 6 5 4 4 4 5 7 8 8 9 9 10 10 13 17 17 17 17 16 15 14 16 16 15 14 14 14 13 11 9 9 9 10 11 11 9 7 7 7 6 6 6
5 5 4 4 3 3 3 4 5 6 7 7 8 9 10 13 15 15 14 14 14 13 12 12 10 9 9 9 8 9 9 10 10 10 9 9 9 8 7 6 5 4 5 6
4 4 3 3 3 3 3 3 4 5 6 6 6 7 9 11 12 11 11 12 13 12 11 10 8 6 6 4 4 7 9 10 11 10 8 8 9 8 7 6 4 3 4 5
3 3 3 3 3 3 3 3 3 4 4 5 5 5 6 8 7 7 8 9 10 9 8 7 7 6 5 4 5 7 9 10 10 9 8 8 8 7 6 5 3 1 1 2
3 3 3 3 3 3 3 4 4 4 4 5 5 5 5 5 4 4 5 7 7 5 4 5 5 5 5 6 7 9 9 9 9 8 7 6 6 6 6 5 2 1 1 1
3 3 3 3 3 3 4 5 6 6 6 6 5 5 5 4 4 4 4 5 4 2 3 3 3 2 3 5 7 8 8 8 8 7 6 6 6 6 6 5 4 3 3 2
3 3 3 3 3 3 4 4 5 5 5 4 4 5 6 6 5 5 3 2 1 1 2 2 1 0 1 3 5 5 5 5 6 6 6 6 6 6 6 7 7 6 4 4
3 3 3 3 3 3 2 2 2 3 3 3 3 3 4 5 5 4 3 2 0 1 1 1 0 1 2 3 3 3 4 4 4 4 4 4 4 4 5 6 6 6 5 4
1 2 3 3 2 1 1 0 0 1 1 1 2 1 2 2 2 2 2 1 0 0 0 0 0 1 3 3 3 3 3 3 3 3 3 3 3 3 3 4 4 5 4 4
0 1 2 2 1 0 0 0 0 0 0 0 1 0 1 1 1 1 1 0 0 0 0 0 1 2 3 3 3 3 3 3 3 3 2 2 3 3 3 3 3 2 2 3
Wind_Speed
9 6 8 11 13 14 15 14 13 10 9 5 3 2 2 2 4 5 6 7 8 9 9 10 10 9 10 10 10 10 10 9 8 7 7 6 6 5 5 4 4 4 3 3
10 9 10 11 12 13 14 13 13 11 8 4 3 2 2 2 3 5 5 6 8 9 10 10 10 10 10 10 10 10 10 9 9 8 8 7 6 5 5 4 4 4 4 4
12 10 11 15 13 13 12 11 11 11 7 4 4 3 2 1 2 3 4 5 6 8 9 10 10 10 11 11 11 11 10 9 9 9 9 8 7 7 6 5 5 4 4 4
9 9 16 6 4 8 10 9 8 7 5 4 4 3 1 1 2 2 3 4 5 7 8 9 10 10 10 10 11 11 11 10 10 10 9 8 8 7 6 5 5 5 5 4
9 13 12 6 5 6 9 8 5 5 4 3 3 4 4 2 1 2 2 2 3 5 7 9 10 10 10 10 11 11 11 11 10 10 10 9 9 8 7 6 5 5 5 5
10 13 13 6 5 3 7 9 3 3 3 3 3 6 2 4 3 3 2 0 2 4 6 7 9 10 10 10 10 11 11 11 10 10 9 9 9 8 7 6 6 6 5 5
12 12 7 2 3 6 10 3 2 2 2 2 3 4 4 4 3 2 2 1 2 4 6 6 8 9 10 10 10 9 9 9 9 9 9 9 8 8 8 7 6 5 6 5
10 12 7 3 4 5 1 2 0 0 1 2 2 2 3 3 3 2 2 1 2 3 4 5 7 8 8 8 8 8 8 8 9 9 8 8 8 8 7 7 7 7 6 6
5 2 4 2 1 1 1 1 1 2 2 2 2 2 3 3 3 2 2 1 1 3 4 4 5 6 7 7 7 7 8 9 8 8 7 8 9 9 7 7 6 6 6 6
4 3 2 1 0 1 2 2 3 2 2 2 2 3 3 3 3 3 2 1 1 3 4 4 4 5 5 6 7 7 8 8 8 8 8 8 7 7 7 7 6 6 7 6
6 4 3 4 2 2 2 3 3 2 2 2 2 2 2 2 2 2 2 1 1 2 3 4 4 4 5 6 7 7 7 7 7 8 7 7 6 4 5 5 4 5 6 6
5 2 4 2 2 3 3 3 3 3 2 2 2 2 2 2 2 2 2 2 0 2 3 3 4 4 5 6 6 7 7 7 6 6 7 7 6 5 2 1 2 3 1 2
5 4 5 4 4 4 4 3 3 3 2 2 2 2 2 2 2 2 2 1 1 1 2 3 4 4 5 5 6 6 5 6 5 6 6 6 7 6 5 4 3 3 4 3
4 4 5 5 4 3 3 3 2 2 2 2 2 2 2 2 2 2 2 2 1 2 3 3 4 4 4 5 5 5 5 5 5 5 6 6 6 6 6 6 6 6 6 7
5 5 5 4 3 3 3 3 2 2 2 2 2 2 2 2 3 3 2 2 1 2 3 3 3 4 4 5 5 6 5 4 4 4 5 6 6 6 6 7 6 6 6 7
5 5 5 4 4 4 4 3 3 3 3 2 2 2 2 2 2 2 2 1 1 2 2 3 3 3 4 5 6 5 5 5 5 5 5 5 5 6 6 7 7 6 6 6
5 4 4 3 4 4 4 3 3 3 3 3 3 2 2 2 2 2 1 1 1 1 2 2 2 3 4 5 5 4 4 5 7 6 5 5 5 6 6 6 6 6 6 6
5 4 4 4 4 4 4 4 3 3 3 3 3 2 2 2 2 2 1 1 0 1 1 1 2 2 4 4 4 3 4 4 5 5 5 5 5 5 6 6 6 6 5 6
4 4 4 3 3 3 4 4 4 3 3 3 3 3 3 2 2 1 1 1 1 2 1 1 1 3 4 4 4 4 5 5 5 5 5 5 5 6 6 6 6 6 6 6
2 3 3 3 4 4 3 3 3 3 3 3 3 3 3 3 2 2 1 1 1 1 1 1 2 3 3 4 5 4 5 5 5 5 5 5 6 6 6 6 6 6 6 6
2 2 2 2 2 3 3 3 3 3 3 3 3 3 2 2 2 2 2 1 1 1 1 1 2 2 2 2 5 5 5 5 5 5 5 5 5 5 6 6 6 5 5 6
1 2 2 2 3 2 2 2 2 2 3 3 2 2 2 2 1 1 1 1 1 1 1 2 1 1 1 3 4 4 5 5 5 4 5 5 5 5 6 6 6 5 5 5
0 1 1 1 2 1 1 2 2 2 2 2 2 1 2 1 1 1 1 1 0 1 1 1 1 1 2 3 3 3 4 4 4 4 4 4 5 5 5 6 5 4 4 4
1 1 0 0 0 0 1 1 0 0 1 0 0 0 1 1 1 1 1 1 1 1 1 1 1 2 4 2 2 2 3 3 4 4 4 3 4 4 4 4 4 4 4 5
1 1 1 1 1 0 1 1 1 1 0 1 1 1 1 1 1 1 1 2 2 1 1 1 1 2 3 1 1 1 1 1 1 2 2 2 3 3 3 3 3 4 4 4
1 1 1 1 0 1 1 1 0 1 1 1 1 2 2 2 2 1 2 3 3 2 2 1 1 0 1 1 0 0 0 1 1 1 1 1 1 2 2 2 2 2 2 2
2 2 2 2 1 1 1 1 1 1 1 1 2 2 2 2 2 2 3 2 2 2 2 1 1 1 1 1 2 2 1 1 1 1 1 1 1 1 1 1 1 1 1 0
Wind_Direction
243 238 220 218 217 216 229 243 251 245 245 254 257 251 223 192 183 183 181 181 183 182 175 174 174 177 179 177 175 173 174 175 173 169 162 160 159 161 160 160 152 139 134 123
224 223 226 229 227 226 231 240 245 251 247 259 270 262 223 198 190 192 193 190 188 184 178 177 176 178 179 176 172 172 175 172 166 163 163 164 163 160 155 151 144 140 140 131
223 213 225 228 225 226 225 233 244 244 247 255 248 250 249 229 219 214 206 198 192 190 186 181 181 179 178 175 170 171 173 170 166 167 167 165 162 157 154 152 146 141 137 126
226 210 232 227 211 227 223 228 242 256 266 264 266 261 235 224 247 247 236 217 197 188 187 182 180 180 178 172 172 173 174 173 172 172 169 166 165 161 158 153 149 147 145 141
226 224 226 194 186 211 220 217 227 251 265 278 284 233 184 85 348 287 268 235 203 195 188 178 178 176 173 174 176 178 178 179 176 173 170 170 170 165 159 158 158 160 154 155
226 237 234 197 163 206 233 216 180 236 256 264 258 242 166 25 340 327 321 252 178 188 180 173 176 173 175 177 180 185 182 180 175 173 174 174 166 162 161 165 166 167 156 155
227 234 234 136 165 195 223 205 133 228 254 257 260 319 355 335 327 341 336 329 164 172 171 170 170 173 179 180 185 184 177 173 172 173 173 169 163 164 166 169 167 170 161 160
225 233 219 118 188 221 346 28 53 314 301 307 319 334 337 338 337 356 14 29 140 157 158 161 169 173 177 183 181 172 169 171 172 173 173 165 165 168 171 170 171 173 173 175
241 241 74 81 88 35 329 329 344 343 348 336 314 321 338 343 343 349 3 36 122 155 148 150 170 178 181 175 175 168 168 172 174 175 173 168 170 171 174 182 190 184 183 183
230 201 182 172 170 293 294 309 315 313 311 308 311 335 344 350 349 345 349 22 136 158 154 153 165 176 178 171 169 168 172 173 174 173 173 172 178 179 185 191 196 194 193 192
232 229 229 211 237 273 303 307 301 307 311 309 319 329 337 341 341 342 344 345 157 167 168 162 162 171 167 162 166 170 173 175 177 177 176 177 180 184 195 200 212 213 201 193
242 231 252 246 262 280 280 283 289 290 291 303 310 307 315 325 338 343 337 342 191 168 168 165 165 164 165 164 166 173 177 177 182 180 178 179 173 173 126 175 166 200 275 220
268 274 287 284 280 279 278 278 282 282 283 294 305 300 300 301 311 314 322 314 226 190 176 168 166 168 167 167 167 175 180 182 184 183 179 181 180 182 181 167 150 177 192 188
255 251 256 257 267 280 283 283 276 273 278 286 289 284 280 290 297 297 310 297 224 185 184 176 169 174 168 166 169 180 183 179 188 186 185 186 188 189 190 187 184 187 186 187
246 243 249 258 261 268 270 267 265 262 272 290 294 276 271 276 283 288 295 274 208 173 170 177 179 174 169 173 176 184 186 182 188 188 191 193 192 194 198 196 195 190 176 170
251 241 232 236 247 260 262 258 269 284 286 296 301 297 291 285 279 283 289 255 208 186 177 182 186 185 191 192 185 184 185 182 196 195 197 202 199 203 204 200 200 199 195 182
241 237 236 245 255 263 272 277 275 278 275 277 286 286 285 283 278 281 300 297 234 222 210 203 198 198 204 203 199 195 186 184 194 197 199 204 207 211 211 210 207 206 205 187
245 256 259 259 263 266 273 279 280 279 275 274 275 268 274 276 284 297 304 343 2 276 247 215 195 205 209 209 208 207 200 194 204 209 204 206 211 215 218 214 211 211 203 179
237 240 249 256 259 258 264 272 277 282 275 267 260 258 261 266 261 241 233 211 224 247 267 233 172 219 219 210 210 212 213 208 206 208 211 205 212 219 220 217 215 212 207 197
222 217 217 226 241 249 260 276 283 274 267 267 258 252 255 256 239 228 228 254 289 316 322 309 244 239 230 210 211 218 215 214 214 210 210 213 216 220 222 221 220 217 216 210
210 210 208 220 243 263 275 285 281 271 276 274 257 245 246 249 245 243 243 271 356 7 332 280 261 258 242 233 224 226 215 211 215 216 215 218 221 225 227 226 224 221 220 220
210 209 219 243 253 263 278 289 283 275 277 270 263 259 248 239 238 256 274 292 314 22 289 279 301 13 317 267 239 231 222 219 219 222 219 219 220 225 227 225 224 222 218 220
202 179 226 253 273 278 284 271 260 255 253 256 259 257 273 299 293 282 298 343 332 8 282 321 15 360 302 264 242 232 226 224 224 221 219 222 224 225 224 223 222 222 221 222
55 63 32 248 30 22 5 338 332 256 245 272 345 339 291 270 289 351 8 75 56 338 322 62 12 287 271 260 242 232 229 224 221 219 216 215 219 221 222 222 224 224 225 229
82 86 95 116 132 129 106 68 35 32 20 37 47 52 46 40 38 18 23 54 66 57 71 107 202 267 261 276 248 235 231 234 242 235 215 219 221 216 221 228 229 230 230 230
81 78 83 86 90 135 138 118 60 7 13 43 53 57 57 56 59 68 89 85 73 61 45 43 48 38 18 6 11 185 199 165 192 219 221 234 249 240 227 233 240 243 245 242
93 91 93 86 89 101 110 97 75 42 27 47 63 59 53 53 64 67 71 77 77 68 57 48 38 40 43 34 40 51 61 64 71 63 54 44 29 26 28 7 344 327 285 240